Meteo pe oră la Dzhusinsk

Astăzi, 3 Martie, Miercuri

Timp Temperatura Precipitaţii Vânt Presiune Umiditate
00:00 -17°C° 0.1 mm 8 m/s 727 mmHg 92%
01:00 -16°C° 0.1 mm 8 m/s 726 mmHg 92%
02:00 -15°C° 0.1 mm 8 m/s 726 mmHg 92%
03:00 -15°C° 0.1 mm 8 m/s 726 mmHg 92%
04:00 -13°C° 0 mm 8 m/s 725 mmHg 94%
05:00 -12°C° 0.2 mm 8 m/s 724 mmHg 93%
06:00 -12°C° 0.2 mm 8 m/s 724 mmHg 93%
07:00 -11°C° 0.2 mm 8 m/s 724 mmHg 93%
08:00 -10°C° 0.2 mm 8 m/s 724 mmHg 93%
09:00 -10°C° 0.2 mm 9 m/s 724 mmHg 94%
10:00 -9°C° 0 mm 9 m/s 723 mmHg 94%
11:00 -9°C° 0.3 mm 9 m/s 723 mmHg 94%
12:00 -8°C° 0.3 mm 9 m/s 723 mmHg 94%
13:00 -8°C° 0.3 mm 9 m/s 723 mmHg 94%
14:00 -8°C° 0.4 mm 9 m/s 723 mmHg 94%
15:00 -8°C° 0.4 mm 9 m/s 723 mmHg 94%
16:00 -8°C° 0.4 mm 9 m/s 723 mmHg 95%
17:00 -7°C° 0.3 mm 8 m/s 722 mmHg 95%
18:00 -6°C° 0.3 mm 8 m/s 722 mmHg 95%
19:00 -6°C° 0.3 mm 7 m/s 722 mmHg 95%
20:00 -6°C° 0.3 mm 7 m/s 722 mmHg 95%
21:00 -6°C° 0.3 mm 7 m/s 721 mmHg 95%
22:00 -7°C° 0.3 mm 7 m/s 721 mmHg 95%
23:00 -7°C° 0.3 mm 7 m/s 721 mmHg 95%

Mâine, 4 Martie, Joi

Timp Temperatura Precipitaţii Vânt Presiune Umiditate
00:00 -6°C° 0.3 mm 6 m/s 720 mmHg 96%
01:00 -6°C° 0.3 mm 6 m/s 720 mmHg 96%
02:00 -6°C° 0.4 mm 6 m/s 720 mmHg 96%
03:00 -6°C° 0.4 mm 6 m/s 720 mmHg 95%
04:00 -6°C° 0.4 mm 6 m/s 721 mmHg 95%
05:00 -9°C° 0 mm 6 m/s 721 mmHg 94%
06:00 -10°C° 0 mm 6 m/s 721 mmHg 93%
07:00 -12°C° 0 mm 5 m/s 721 mmHg 91%
08:00 -12°C° 0 mm 6 m/s 721 mmHg 91%
09:00 -14°C° 0 mm 6 m/s 722 mmHg 90%
10:00 -14°C° 0 mm 6 m/s 723 mmHg 90%
11:00 -13°C° 0 mm 7 m/s 723 mmHg 89%
12:00 -13°C° 0 mm 7 m/s 723 mmHg 88%
13:00 -12°C° 0 mm 7 m/s 724 mmHg 87%
14:00 -13°C° 0 mm 7 m/s 724 mmHg 87%
15:00 -12°C° 0 mm 6 m/s 724 mmHg 87%
16:00 -12°C° 0 mm 6 m/s 725 mmHg 87%
17:00 -14°C° 0 mm 6 m/s 725 mmHg 89%
18:00 -15°C° 0 mm 6 m/s 725 mmHg 91%
19:00 -16°C° 0 mm 6 m/s 725 mmHg 93%
20:00 -17°C° 0 mm 7 m/s 725 mmHg 92%
21:00 -15°C° 0 mm 7 m/s 726 mmHg 92%
22:00 -16°C° 0 mm 8 m/s 726 mmHg 91%
23:00 -15°C° 0 mm 9 m/s 725 mmHg 90%

Poimâine, 5 Martie, Vineri

Timp Temperatura Precipitaţii Vânt Presiune Umiditate
00:00 -13°C° 0 mm 10 m/s 725 mmHg 90%
01:00 -12°C° 0 mm 11 m/s 724 mmHg 89%
02:00 -11°C° 0 mm 11 m/s 724 mmHg 89%
03:00 -11°C° 0 mm 11 m/s 724 mmHg 89%
04:00 -9°C° 0 mm 10 m/s 724 mmHg 90%
05:00 -9°C° 0 mm 10 m/s 725 mmHg 90%
06:00 -9°C° 0 mm 10 m/s 725 mmHg 90%
07:00 -9°C° 0 mm 10 m/s 726 mmHg 91%
08:00 -8°C° 0 mm 10 m/s 726 mmHg 90%
09:00 -8°C° 0 mm 10 m/s 726 mmHg 89%
10:00 -8°C° 0 mm 10 m/s 726 mmHg 88%
11:00 -8°C° 0 mm 10 m/s 726 mmHg 88%
12:00 -7°C° 0 mm 11 m/s 726 mmHg 87%
13:00 -7°C° 0 mm 11 m/s 726 mmHg 86%
14:00 -7°C° 0 mm 11 m/s 726 mmHg 85%
15:00 -6°C° 0 mm 11 m/s 726 mmHg 85%
16:00 -6°C° 0 mm 11 m/s 726 mmHg 84%
17:00 -6°C° 0.1 mm 11 m/s 726 mmHg 87%
18:00 -6°C° 0.1 mm 11 m/s 726 mmHg 90%
19:00 -6°C° 0.1 mm 11 m/s 726 mmHg 93%
20:00 -6°C° 0.1 mm 11 m/s 726 mmHg 92%
21:00 -6°C° 0.1 mm 11 m/s 726 mmHg 92%
22:00 -4°C° 0.1 mm 11 m/s 726 mmHg 91%
23:00 -4°C° 0.2 mm 11 m/s 725 mmHg 92%

6 Martie, Sâmbătă

Timp Temperatura Precipitaţii Vânt Presiune Umiditate
00:00 -6°C° 0.2 mm 11 m/s 725 mmHg 93%
01:00 -6°C° 0.2 mm 11 m/s 724 mmHg 94%
02:00 -4°C° 0.4 mm 10 m/s 725 mmHg 95%
03:00 -4°C° 0.4 mm 10 m/s 725 mmHg 95%
04:00 -4°C° 0.4 mm 10 m/s 725 mmHg 96%
05:00 -4°C° 0.2 mm 9 m/s 726 mmHg 96%
06:00 -4°C° 0.2 mm 8 m/s 726 mmHg 95%
07:00 -4°C° 0.2 mm 7 m/s 726 mmHg 95%
08:00 -5°C° 0.1 mm 5 m/s 727 mmHg 93%
09:00 -5°C° 0.1 mm 4 m/s 727 mmHg 91%
10:00 -6°C° 0.1 mm 3 m/s 728 mmHg 88%
11:00 -5°C° 0 mm 2 m/s 728 mmHg 85%
12:00 -3°C° 0 mm 1 m/s 728 mmHg 82%
13:00 -4°C° 0 mm 0 m/s 728 mmHg 79%
14:00 -3°C° 0 mm 1 m/s 728 mmHg 83%
15:00 -3°C° 0 mm 1 m/s 728 mmHg 87%
16:00 -5°C° 0 mm 2 m/s 727 mmHg 91%
17:00 -6°C° 0.5 mm 3 m/s 727 mmHg 92%
18:00 -7°C° 0.5 mm 4 m/s 726 mmHg 94%
19:00 -6°C° 0.5 mm 5 m/s 726 mmHg 96%
20:00 -6°C° 0.7 mm 7 m/s 725 mmHg 97%
21:00 -5°C° 0.7 mm 8 m/s 725 mmHg 97%
22:00 -4°C° 0.7 mm 10 m/s 724 mmHg 97%
23:00 -4°C° 0.3 mm 10 m/s 723 mmHg 96%

7 Martie, Duminică

Timp Temperatura Precipitaţii Vânt Presiune Umiditate
00:00 -4°C° 0.3 mm 10 m/s 722 mmHg 96%
01:00 -4°C° 0.3 mm 11 m/s 721 mmHg 96%
02:00 -4°C° 0.2 mm 10 m/s 721 mmHg 96%
03:00 -4°C° 0.2 mm 10 m/s 721 mmHg 96%
04:00 -4°C° 0.2 mm 9 m/s 721 mmHg 96%
05:00 -5°C° 0.5 mm 8 m/s 721 mmHg 95%
06:00 -6°C° 0.5 mm 7 m/s 722 mmHg 94%
07:00 -6°C° 0.5 mm 6 m/s 722 mmHg 93%
08:00 -9°C° 0 mm 6 m/s 722 mmHg 91%
09:00 -10°C° 0 mm 6 m/s 723 mmHg 88%
10:00 -11°C° 0 mm 5 m/s 723 mmHg 86%
11:00 -11°C° 0 mm 5 m/s 723 mmHg 85%
12:00 -11°C° 0 mm 5 m/s 724 mmHg 84%
13:00 -11°C° 0 mm 5 m/s 724 mmHg 83%
14:00 -11°C° 0 mm 5 m/s 725 mmHg 82%
15:00 -12°C° 0 mm 6 m/s 725 mmHg 82%
16:00 -12°C° 0 mm 6 m/s 725 mmHg 81%
17:00 -14°C° 0 mm 5 m/s 726 mmHg 83%
18:00 -18°C° 0 mm 5 m/s 726 mmHg 86%
19:00 -20°C° 0 mm 5 m/s 726 mmHg 88%
20:00 -20°C° 0 mm 4 m/s 727 mmHg 90%
21:00 -22°C° 0 mm 4 m/s 727 mmHg 92%
22:00 -24°C° 0 mm 4 m/s 728 mmHg 94%
23:00 -25°C° 0 mm 4 m/s 728 mmHg 93%

8 Martie, Luni

Timp Temperatura Precipitaţii Vânt Presiune Umiditate
00:00 -24°C° 0 mm 3 m/s 728 mmHg 93%
01:00 -25°C° 0 mm 3 m/s 728 mmHg 93%
02:00 -25°C° 0 mm 3 m/s 728 mmHg 93%
03:00 -25°C° 0 mm 3 m/s 728 mmHg 92%
04:00 -25°C° 0 mm 3 m/s 728 mmHg 92%
05:00 -25°C° 0 mm 3 m/s 728 mmHg 92%
06:00 -24°C° 0 mm 3 m/s 728 mmHg 91%
07:00 -25°C° 0 mm 4 m/s 728 mmHg 91%
08:00 -22°C° 0 mm 5 m/s 728 mmHg 88%
09:00 -21°C° 0 mm 6 m/s 728 mmHg 86%
10:00 -18°C° 0 mm 7 m/s 728 mmHg 83%
11:00 -16°C° 0 mm 8 m/s 728 mmHg 82%
12:00 -15°C° 0 mm 9 m/s 727 mmHg 82%
13:00 -13°C° 0 mm 10 m/s 727 mmHg 81%
14:00 -13°C° 0 mm 10 m/s 727 mmHg 82%
15:00 -13°C° 0 mm 10 m/s 726 mmHg 83%
16:00 -12°C° 0 mm 9 m/s 726 mmHg 84%
17:00 -12°C° 0.1 mm 9 m/s 726 mmHg 86%
18:00 -12°C° 0.1 mm 9 m/s 726 mmHg 89%
19:00 -11°C° 0.1 mm 9 m/s 725 mmHg 91%
20:00 -11°C° 0.1 mm 9 m/s 725 mmHg 91%
21:00 -11°C° 0.1 mm 9 m/s 725 mmHg 91%
22:00 -11°C° 0.1 mm 8 m/s 726 mmHg 91%
23:00 -11°C° 0.1 mm 8 m/s 726 mmHg 91%
Arată mai mult

Formular de consimțământ

Meteoprog și furnizorii noștri de servicii pot stoca și accesa date personale, precum cookies, identificatori de dispozitiv sau alte tehnologii similare pe dispozitivul dumneavoastră și procesa astfel de date pentru a personaliza conținutul și reclamele, dar și pentru a oferi caracteristici de social media și pentru a analiza traficul.

  • Stocarea și/sau accesarea informațiilor pe dispozitivul dumneavoastră

    Cookies, identificatori de dispozitiv sau alte informații pot fi stocate sau accesate pe dispozitiv în scopurile indicate mai sus.

  • Reclame și conținut personalizat, evaluarea reclamelor și a conținutului, informații despre audiențe și dezvoltarea produselor

    Reclamele și conținutul pot fi personalizate pe baza unui profil. Pot fi adăugate date suplimentare pentru a personaliza mai bine reclamele și conținutul. Performanța reclamelor și conținutului poate fi măsurată. Pot fi obținute informații despre utilizatorii care au văzut reclamele și conținutul. Aceste date pot fi utilizate pentru a dezvolta sau îmbunătăți experiența utilizatorilor, sistemele și software-ul.

Dând clic pe ‘Sunt de acord’, permiteți utilizarea cookie-urilor menționate, a identificatorilor de dispozitiv, balizelor web sau altor tehnologii similare. Setările pot fi modificate din browser-ul dispozitivului dumneavoastră.

În anumite scopuri, interesele legitime pot prima asupra consimțământului. Puteți citi mai multe informații în acest sens în Politica privind Confidențialitatea Datelor și Cookie.